Location: Bear Valley
(38.4650°N, 120.0390°W)
Time: 17:28:09
(UTC-08:00)

OTV 5 (USA 277) - Pass Details

Date: 27 October 2019
Orbit: 310 x 324 km, 54.5° (Epoch: 17 October)

Event Time Altitude Azimuth Distance (km) Brightness Sun altitude
Rises 18:53:21 0° 199° (SSW) 2,033 ? -9.8°
Reaches altitude 10° 18:55:32 10° 182° (S) 1,212 ? -10.3°
Maximum altitude 18:57:41 21° 129° (SE) 772 ? -10.7°
Enters shadow 18:58:38 18° 98° (E) 877 ? -10.9°
